SV2MJJ Weather Reports


time (UTC)temp
F
wind
direction
speed
knots
gust
knots
rain 1hr
in
rain 24hr
in
rain mn
in
humidity
%
barometer
mb
20221003065119 65 300 0.0 2.6 0.00 0.00 0.00 66 1011.0
20221003065043 65 300 0.0 2.6 0.00 0.00 0.00 66 1011.0
20221003064546 65 300 0.9 3.5 0.00 0.00 0.00 65 1011.0
20221003064036 66 300 1.7 3.5 0.00 0.00 0.00 65 1011.0
20221003063603 66 300 0.0 2.6 0.00 0.00 0.00 64 1011.0
20221003063101 66 300 0.0 0.0 0.00 0.00 0.00 64 1011.1
20221003062559 66 300 0.0 0.0 0.00 0.00 0.00 64 1011.1
20221003062101 65 300 0.0 0.0 0.00 0.00 0.00 63 1011.1
20221003061601 64 300 0.0 0.0 0.00 0.00 0.00 64 1011.1
20221003061037 64 300 0.0 0.0 0.00 0.00 0.00 65 1011.0
20221003060542 64 300 0.0 0.0 0.00 0.00 0.00 65 1011.0
20221003060038 64 300 0.0 0.0 0.00 0.00 0.00 65 1010.9
20221003055607 63 300 0.0 0.0 0.00 0.00 0.00 65 1011.2
20221003055041 63 300 0.0 0.0 0.00 0.00 0.00 64 1011.1
20221003054541 62 300 0.0 0.0 0.00 0.00 0.00 65 1011.2
20221003054042 62 300 0.0 2.6 0.00 0.00 0.00 66 1011.0
20221003053543 61 300 0.0 2.6 0.00 0.00 0.00 67 1011.0
20221003053101 61 300 0.0 4.3 0.00 0.00 0.00 67 1010.9
20221003052541 61 300 0.0 4.3 0.00 0.00 0.00 67 1010.9
20221003052043 61 300 0.9 4.3 0.00 0.00 0.00 67 1010.8
20221003051543 61 300 1.7 5.2 0.00 0.00 0.00 66 1010.8
20221003051039 60 300 2.6 5.2 0.00 0.00 0.00 66 1010.9
20221003050535 60 300 2.6 5.2 0.00 0.00 0.00 66 1010.9
20221003050044 60 300 1.7 4.3 0.00 0.00 0.00 66 1010.9
20221003045544 60 300 1.7 4.3 0.00 0.00 0.00 66 1010.8
20221003045035 61 300 0.9 4.3 0.00 0.00 0.00 66 1010.8
20221003044536 61 300 2.6 4.3 0.00 0.00 0.00 66 1010.8
20221003044104 61 300 1.7 3.5 0.00 0.00 0.00 66 1010.8
20221003043558 60 300 0.9 3.5 0.00 0.00 0.00 67 1010.7
20221003043037 60 300 0.9 5.2 0.00 0.00 0.00 67 1010.7
20221003042546 60 300 0.9 5.2 0.00 0.00 0.00 67 1010.7
20221003042040 60 300 3.5 5.2 0.00 0.00 0.00 66 1010.7
20221003041600 61 300 2.6 5.2 0.00 0.00 0.00 66 1010.6
20221003041038 60 300 2.6 5.2 0.00 0.00 0.00 66 1010.5
20221003040553 60 300 1.7 7.0 0.00 0.00 0.00 66 1010.6
20221003040121 60 300 4.3 7.8 0.00 0.00 0.00 67 1010.6
20221003035537 60 300 3.5 7.8 0.00 0.00 0.00 66 1010.6
20221003035051 60 300 2.6 5.2 0.00 0.00 0.00 66 1010.5
20221003034556 60 300 1.7 4.3 0.00 0.00 0.00 66 1010.5
20221003034054 60 300 0.9 7.0 0.00 0.00 0.00 66 1010.6
20221003033610 60 300 2.6 7.0 0.00 0.00 0.00 66 1010.7
20221003033046 61 300 3.5 7.0 0.00 0.00 0.00 65 1010.6
20221003032553 61 299 4.3 7.8 0.00 0.00 0.00 66 1010.7
20221003032045 61 300 3.5 7.8 0.00 0.00 0.00 65 1010.8
20221003031546 61 297 3.5 5.2 0.00 0.00 0.00 63 1010.7
20221003031052 61 297 1.7 7.0 0.00 0.00 0.00 63 1010.8
20221003030608 61 297 3.5 7.0 0.00 0.00 0.00 63 1010.8
20221003030043 61 297 2.6 7.0 0.00 0.00 0.00 63 1010.8
20221003025540 61 296 4.3 9.6 0.00 0.00 0.00 63 1010.7
20221003025103 61 297 4.3 9.6 0.00 0.00 0.00 63 1010.7
20221003024541 61 298 6.1 9.6 0.00 0.00 0.00 63 1010.8
20221003024037 61 298 4.3 10.4 0.00 0.00 0.00 63 1010.7
20221003023603 61 296 7.8 10.4 0.00 0.00 0.00 63 1010.7
20221003022535 61 296 3.5 7.8 0.00 0.00 0.00 64 1010.7
20221003022057 61 297 6.1 8.7 0.00 0.00 0.00 64 1010.7
20221003021600 61 297 5.2 8.7 0.00 0.00 0.00 65 1010.8
20221003021035 61 298 7.0 8.7 0.00 0.00 0.00 65 1010.8
20221003020601 61 298 2.6 7.8 0.00 0.00 0.00 65 1010.8
20221003020101 61 298 2.6 7.0 0.00 0.00 0.00 65 1010.9
20221003015540 61 298 0.9 5.2 0.00 0.00 0.00 65 1010.9
20221003015045 61 298 1.7 7.8 0.00 0.00 0.00 65 1011.0
20221003014545 61 298 2.6 7.8 0.00 0.00 0.00 65 1011.2
20221003014042 61 298 3.5 7.0 0.00 0.00 0.00 64 1011.2
20221003013547 62 297 2.6 5.2 0.00 0.00 0.00 64 1011.3
20221003013045 62 297 2.6 7.8 0.00 0.00 0.00 63 1011.5
20221003012544 62 297 4.3 7.8 0.00 0.00 0.00 63 1011.4
20221003012037 62 298 3.5 7.8 0.00 0.00 0.00 63 1011.4
20221003011536 62 297 1.7 8.7 0.00 0.00 0.00 62 1011.3
20221003011102 62 297 3.5 8.7 0.00 0.00 0.00 62 1011.6
20221003010534 63 298 3.5 8.7 0.00 0.00 0.00 62 1011.5
20221003010040 62 302 1.7 7.0 0.00 0.01 0.00 62 1011.5
20221003005539 63 302 2.6 5.2 0.00 0.01 0.00 62 1011.5
20221003005057 63 303 1.7 7.8 0.00 0.01 0.00 62 1011.5
20221003004557 63 304 2.6 7.8 0.00 0.01 0.00 62 1011.5
20221003004038 63 305 3.5 7.0 0.00 0.01 0.00 62 1011.6
20221003003602 63 305 4.3 7.0 0.00 0.01 0.00 62 1011.7
20221003003037 63 305 4.3 7.8 0.00 0.01 0.00 62 1011.9
20221003002536 63 303 3.5 8.7 0.00 0.01 0.00 62 1011.9
20221003002101 63 302 3.5 8.7 0.00 0.01 0.00 62 1012.0
20221003001557 62 302 2.6 7.8 0.00 0.01 0.00 63 1012.1
20221003001055 63 301 2.6 7.0 0.00 0.01 0.00 63 1012.2
20221003000549 63 300 2.6 7.0 0.00 0.01 0.00 63 1012.2
20221003000057 63 300 3.5 5.2 0.00 0.13 0.00 62 1012.2
20221002235536 63 300 3.5 5.2 0.00 0.13 0.00 62 1012.4
20221002235122 63 300 1.7 4.3 0.00 0.13 0.00 62 1012.4
20221002234558 63 300 1.7 4.3 0.00 0.13 0.00 62 1012.6
20221002234036 63 300 0.0 5.2 0.00 0.13 0.00 63 1012.7
20221002233623 63 300 2.6 5.2 0.00 0.13 0.00 62 1012.7
20221002233059 64 300 1.7 3.5 0.00 0.13 0.00 62 1012.7
20221002232538 64 300 1.7 4.3 0.00 0.13 0.00 62 1012.8
20221002232051 64 300 1.7 4.3 0.00 0.13 0.00 62 1012.8
20221002231600 64 300 0.9 4.3 0.00 0.13 0.00 62 1012.8
20221002231040 64 300 1.7 8.7 0.00 0.13 0.00 62 1012.8
20221002230536 64 300 4.3 8.7 0.00 0.13 0.00 62 1012.8
20221002230036 64 302 4.3 8.7 0.00 0.13 0.00 63 1012.8
20221002225537 64 302 4.3 9.6 0.00 0.13 0.00 63 1012.9
20221002225103 64 299 5.2 9.6 0.00 0.13 0.00 63 1012.8
20221002224540 64 298 4.3 8.7 0.00 0.13 0.00 63 1012.9
20221002224039 64 297 6.1 10.4 0.00 0.13 0.00 63 1013.0
20221002223534 64 290 5.2 9.6 0.00 0.13 0.00 63 1013.0
20221002223102 64 292 5.2 10.4 0.00 0.13 0.00 63 1013.0
20221002222603 64 300 4.3 10.4 0.00 0.13 0.00 63 1013.1
20221002222055 65 302 5.2 10.4 0.00 0.13 0.00 62 1013.1
20221002221541 65 299 5.2 9.6 0.00 0.13 0.00 62 1013.1
20221002221038 65 300 5.2 9.6 0.00 0.13 0.00 62 1013.2
20221002220536 65 301 6.1 10.4 0.00 0.13 0.00 62 1013.2
20221002220105 65 300 6.1 13.9 0.00 0.40 0.00 62 1013.2
20221002215545 65 300 8.7 13.9 0.00 0.40 0.00 62 1013.2
20221002215037 65 301 4.3 9.6 0.00 0.40 0.00 62 1013.2
20221002214536 65 303 6.1 13.0 0.00 0.40 0.00 63 1013.3
20221002214044 65 302 7.8 13.0 0.00 0.40 0.00 63 1013.2
20221002213600 65 297 7.0 11.3 0.00 0.40 0.00 63 1013.3
20221002213035 65 290 6.1 11.3 0.00 0.40 0.00 64 1013.3
20221002212538 65 297 5.2 10.4 0.00 0.40 0.00 64 1013.4
20221002212111 65 280 5.2 10.4 0.00 0.40 0.00 64 1013.4
20221002211559 65 282 6.1 10.4 0.00 0.40 0.00 64 1013.4
20221002211100 65 274 7.0 10.4 0.00 0.40 0.00 64 1013.4
20221002210536 65 275 5.2 11.3 0.00 0.40 0.00 64 1013.5
20221002210050 65 273 7.0 11.3 0.00 0.40 0.40 64 1013.5
20221002205620 65 273 7.8 11.3 0.00 0.40 0.40 64 1013.5
20221002205051 65 276 7.0 11.3 0.00 0.40 0.40 63 1013.5
20221002204547 65 278 5.2 13.0 0.00 0.40 0.40 63 1013.5
20221002204043 65 274 8.7 13.0 0.00 0.40 0.40 64 1013.5
20221002203607 65 274 5.2 12.2 0.00 0.40 0.40 65 1013.6
20221002203102 65 275 7.0 12.2 0.00 0.40 0.40 64 1013.7
20221002202541 65 287 5.2 9.6 0.00 0.40 0.40 64 1013.8
20221002202045 66 280 5.2 11.3 0.00 0.40 0.40 63 1013.8
20221002201542 66 280 5.2 11.3 0.00 0.40 0.40 63 1013.9
20221002201039 66 283 6.1 10.4 0.00 0.40 0.40 63 1014.0
20221002200604 66 294 6.1 10.4 0.00 0.40 0.40 63 1014.0
20221002200034 65 275 7.0 12.2 0.00 0.40 0.40 64 1014.0
20221002195541 65 273 8.7 12.2 0.00 0.40 0.40 64 1014.1
20221002195104 65 272 7.0 10.4 0.00 0.40 0.40 64 1014.1
20221002194541 65 278 6.1 9.6 0.00 0.40 0.40 64 1013.9
20221002194100 65 284 4.3 12.2 0.00 0.40 0.40 64 1014.0
20221002193539 65 287 5.2 12.2 0.00 0.40 0.40 64 1013.9
20221002193056 65 282 5.2 10.4 0.00 0.40 0.40 64 1013.9
20221002192548 66 277 7.0 10.4 0.00 0.40 0.40 63 1014.0
20221002192049 66 295 6.1 9.6 0.00 0.40 0.40 63 1014.0
20221002191545 66 292 4.3 9.6 0.00 0.40 0.40 63 1014.1
20221002191059 66 284 4.3 8.7 0.00 0.40 0.40 62 1014.0
20221002190544 66 284 5.2 8.7 0.00 0.40 0.40 63 1014.2
20221002190041 66 289 4.3 8.7 0.00 0.40 0.40 63 1014.1
20221002185602 67 290 4.3 8.7 0.00 0.40 0.40 62 1014.2
20221002185038 67 290 2.6 8.7 0.00 0.40 0.40 62 1014.2
20221002184556 67 292 4.3 8.7 0.00 0.40 0.40 62 1014.1
20221002184105 67 295 4.3 8.7 0.00 0.40 0.40 62 1014.1
20221002183549 67 298 6.1 8.7 0.00 0.40 0.40 62 1014.2
20221002183053 67 296 5.2 7.8 0.00 0.40 0.40 62 1014.1
20221002182545 67 298 3.5 7.8 0.00 0.40 0.40 62 1014.2
20221002182114 68 298 4.3 7.0 0.00 0.40 0.40 62 1014.2
20221002181536 68 296 3.5 7.0 0.00 0.40 0.40 61 1014.2
20221002181109 68 294 3.5 7.0 0.00 0.40 0.40 60 1014.2
20221002180609 68 293 2.6 7.8 0.00 0.40 0.40 60 1014.2
20221002180102 68 293 4.3 7.8 0.00 0.40 0.40 60 1014.3
20221002175609 69 291 4.3 12.2 0.00 0.40 0.40 60 1014.2
20221002175051 69 271 6.1 12.2 0.00 0.40 0.40 59 1014.1
20221002174541 70 1 4.3 7.8 0.00 0.40 0.40 57 1014.1
20221002174100 70 19 2.6 5.2 0.00 0.40 0.40 56 1014.1
20221002173619 71 20 1.7 5.2 0.00 0.40 0.40 55 1014.0
20221002173043 71 22 0.0 3.5 0.00 0.40 0.40 55 1013.9
20221002172558 70 22 0.9 5.2 0.00 0.40 0.40 56 1013.9
20221002172125 70 22 0.9 5.2 0.00 0.40 0.40 57 1013.9
20221002171559 70 27 1.7 4.3 0.00 0.40 0.40 57 1013.9
20221002171106 70 31 0.9 4.3 0.00 0.40 0.40 57 1013.9
20221002170538 71 32 0.9 4.3 0.00 0.40 0.40 56 1013.8
20221002170111 71 32 0.9 4.3 0.00 0.40 0.40 56 1013.8
20221002165553 71 32 0.9 3.5 0.00 0.40 0.40 54 1013.7
20221002165117 72 32 0.9 3.5 0.00 0.40 0.40 54 1013.6
20221002164552 72 32 0.9 2.6 0.00 0.40 0.40 54 1013.5
20221002164057 72 32 0.0 2.6 0.00 0.40 0.40 55 1013.4
20221002163548 71 32 0.9 3.5 0.00 0.40 0.40 55 1013.2
20221002163043 71 32 0.0 5.2 0.00 0.40 0.40 56 1013.2
20221002162544 72 32 1.7 5.2 0.00 0.40 0.40 56 1013.2
20221002162109 72 34 3.5 5.2 0.00 0.40 0.40 55 1013.4
20221002161547 73 44 2.6 5.2 0.00 0.40 0.40 55 1013.4
20221002161041 73 45 1.7 5.2 0.00 0.40 0.40 54 1013.4
20221002160547 73 49 0.0 5.2 0.00 0.40 0.40 54 1013.4
20221002160035 74 49 0.9 5.2 0.00 0.40 0.40 53 1013.4
20221002155553 74 49 0.9 2.6 0.00 0.40 0.40 53 1013.3
20221002155101 74 49 0.0 3.5 0.00 0.40 0.40 52 1013.3
20221002154553 75 49 0.9 3.5 0.00 0.40 0.40 51 1013.3
20221002154050 76 49 0.9 4.3 0.00 0.40 0.40 50 1013.3
20221002153548 77 49 3.5 4.3 0.00 0.40 0.40 48 1013.3
20221002153112 77 49 0.0 2.6 0.00 0.40 0.40 47 1013.3
20221002152549 78 49 0.9 3.5 0.00 0.40 0.40 46 1013.3
20221002152044 78 49 0.9 3.5 0.00 0.40 0.40 44 1013.4
20221002151539 78 49 0.9 4.3 0.00 0.40 0.40 44 1013.3
20221002151039 78 49 1.7 4.3 0.00 0.40 0.40 44 1013.4
20221002150538 78 48 0.0 5.2 0.00 0.40 0.40 44 1013.3
20221002150052 78 48 1.7 6.1 0.00 0.40 0.40 43 1013.3
20221002145539 78 47 2.6 6.1 0.00 0.40 0.40 43 1013.4
20221002145052 78 46 4.3 6.1 0.00 0.40 0.40 42 1013.2
20221002144556 79 49 2.6 5.2 0.00 0.40 0.40 43 1013.3
20221002144053 79 49 1.7 8.7 0.00 0.40 0.40 42 1013.3
20221002143038 79 52 2.6 7.0 0.00 0.40 0.40 41 1013.2
20221002142542 79 54 2.6 7.0 0.00 0.40 0.40 41 1013.3
20221002142039 79 60 0.9 7.0 0.00 0.40 0.40 41 1013.1
20221002141624 79 60 2.6 8.7 0.00 0.40 0.40 41 1013.2
20221002141100 79 65 4.3 8.7 0.00 0.40 0.40 40 1013.0
20221002140622 79 64 0.9 7.8 0.00 0.40 0.40 40 1013.0
20221002140038 79 63 3.5 7.8 0.00 0.40 0.40 40 1013.2
20221002135624 79 68 0.0 7.0 0.00 0.40 0.40 41 1013.1
20221002135036 79 69 3.5 7.0 0.00 0.40 0.40 41 1013.1
20221002134553 79 63 1.7 10.4 0.00 0.40 0.40 41 1013.1
20221002134104 79 57 3.5 10.4 0.00 0.40 0.40 40 1013.1
20221002133558 79 70 1.7 7.8 0.00 0.40 0.40 40 1013.0
20221002133052 80 58 3.5 7.8 0.00 0.40 0.40 40 1013.1
20221002132549 80 55 2.6 7.8 0.00 0.40 0.40 39 1013.2
20221002132043 80 59 3.5 7.8 0.00 0.40 0.40 39 1013.1
20221002131543 80 62 0.9 5.2 0.00 0.40 0.40 40 1013.2
20221002131049 80 55 0.0 4.3 0.00 0.40 0.40 40 1013.2
20221002130548 79 53 0.0 8.7 0.00 0.40 0.40 40 1013.2
20221002130037 79 51 3.5 8.7 0.00 0.40 0.40 40 1013.2
20221002125535 79 66 1.7 7.8 0.00 0.40 0.40 40 1013.1
20221002125100 79 69 2.6 8.7 0.00 0.40 0.40 40 1013.2
20221002124115 79 35 0.9 10.4 0.00 0.40 0.40 40 1013.1
20221002123547 79 45 3.5 10.4 0.00 0.40 0.40 40 1013.2
20221002123115 79 38 2.6 8.7 0.00 0.40 0.40 40 1013.3
20221002122548 79 40 1.7 10.4 0.00 0.40 0.40 40 1013.2
20221002122042 79 58 6.1 11.3 0.00 0.40 0.40 39 1013.2
20221002121536 80 71 4.3 11.3 0.00 0.40 0.40 40 1013.1
20221002121043 79 58 1.7 8.7 0.00 0.40 0.40 40 1013.3
20221002120557 79 64 2.6 8.7 0.00 0.40 0.40 41 1013.2
20221002120103 79 65 3.5 12.2 0.00 0.40 0.40 40 1013.2
20221002115604 79 46 6.1 12.2 0.00 0.40 0.40 41 1013.3
20221002115053 78 53 2.6 7.8 0.00 0.40 0.40 42 1013.3
20221002114548 78 37 3.5 9.6 0.00 0.40 0.40 42 1013.4
20221002114052 78 29 4.3 10.4 0.00 0.40 0.40 42 1013.5
20221002113605 78 38 2.6 10.4 0.00 0.40 0.40 42 1013.5
20221002113040 78 40 3.5 8.7 0.00 0.40 0.40 42 1013.7
20221002112537 78 59 2.6 10.4 0.00 0.40 0.40 42 1013.7
20221002112038 78 53 4.3 10.4 0.00 0.40 0.40 43 1013.7
20221002111554 78 29 5.2 10.4 0.00 0.40 0.40 43 1013.7
20221002111101 77 32 2.6 9.6 0.00 0.40 0.40 44 1013.7
20221002110614 77 29 0.9 10.4 0.00 0.40 0.40 45 1013.7
20221002110053 77 28 5.2 11.3 0.00 0.40 0.40 44 1013.7
20221002105558 77 40 1.7 11.3 0.00 0.40 0.40 45 1013.9
20221002105051 77 84 3.5 10.4 0.00 0.40 0.40 44 1014.0
20221002104549 77 72 2.6 13.0 0.00 0.40 0.40 45 1014.0
20221002104045 77 38 2.6 9.6 0.00 0.40 0.40 45 1014.0
20221002103535 77 56 5.2 10.4 0.00 0.40 0.40 45 1014.0
20221002103100 77 72 3.5 10.4 0.00 0.40 0.40 45 1014.0
20221002102536 76 40 6.1 10.4 0.00 0.40 0.40 46 1014.2
20221002102101 76 65 4.3 13.0 0.00 0.40 0.40 47 1014.3
20221002101601 76 38 0.9 13.0 0.00 0.40 0.40 48 1014.3
20221002101036 76 70 3.5 13.0 0.00 0.40 0.40 48 1014.3
20221002100601 76 43 4.3 13.0 0.00 0.40 0.40 49 1014.3
20221002100059 76 63 6.1 13.0 0.00 0.40 0.40 48 1014.4
20221002095536 76 38 5.2 12.2 0.00 0.40 0.40 49 1014.2
20221002095048 76 64 3.5 12.2 0.00 0.40 0.40 49 1014.4